Tracking 18844 objects as of 21-Nov-2017
HD Live streaming from Space Station
objects crossing your sky now

WESTFORD NEEDLES

Track WESTFORD NEEDLES now!
10-day predictions
WESTFORD NEEDLES is classified as:


NORAD ID: 19946
Int'l Code: 1963-014EU
Perigee: 1,692.5 km
Apogee: 5,459.9 km
Inclination: 86.2 °
Period: 164.6 minutes
Semi major axis: 9947 km
RCS: 0.1748 m2 (medium)
Launch date: May 9, 1963
Source: United States (US)
Launch site: AIR FORCE WESTERN TEST RANGE (AFWTR)
aabbcc
Your satellite tracking list
Your tracking list is empty




NASA's NSSDC Master Catalog

Two Line Element Set (TLE):
1 19946U 63014EU  17309.99570314 -.00000068  00000-0 -46352-2 0  9999
2 19946  86.2268 329.0072 1893700 321.5914  45.5665  8.75084405915286
Source of the keplerian elements: AFSPC